DECAYED
Showing default

GHOST-1, 56195 (Decayed)

Orbit data source: Space-Track

GHOST-1, 56195 was a payload satellite owned by Orbital Sidekick (US) in LEO that was launched on Sat, 15 Apr 2023 UTC via an FALCON 9 launch vehicle from the Air Force Western Test Range (AFWTR). Payload-class satellites include a variety of spacecraft equipped with specific instruments for various scientific and technological missions. These include communications satellites like Starlink; space stations such as the ISS; scientific satellites like the Hubble; Earth observation satellites from companies like Planet Labs, Umbra, and HawkEye 360; GPS; miniature CubeSats for education and research; and military/defense satellites.

Not visible in the next 10 days
Identifier
56195, 2023-054T
Orbit
Decayed
Country
Flag of USUS
Related business
Manufacturer
Astro Digital
Mission
Decayed Commercial Imaging
Bus & Motor
CORVUS-XL, Unknown motor
Mass
85 kg wet, 85 kg dry
Launch date (UTC)
2023-04-15 (3 years ago)
Launch vehicle
FALCON 9
Launch site
Air Force Western Test Range (AFWTR)
Object type
Payload
Rocket body
Debris
Shape & HBR
Box + 1 Dish, 1.0 m
Radar Cross Section
0.425 m², Medium (>0.1 m² and < 1m²)

Expand to show TLE details & history
Last TLE update: 2 months ago

TLE from 2 months ago
0 GHOST-1
1 56195U 23054T   26124.84149806  .07462440  25461-5  36773-3 0  9994
2 56195  97.2749  46.6504 0008362 213.6171 146.4601 16.42251804172613
Epoch: 2026-05-04T20:11Z
TLE epoch observation values (Epoch: 2026-05-04T20:11:45.432Z)
Latitude
0.00003°
Longitude
-119.01381°
Altitude
167.637 km
Speed
7.803 km/s
True Right ascension
03h 06m 36s
True Declination
0° 00' 00"
Sunlit
Object was in daylight at epoch
Visualization orbit readout
Latitude
Unknown
Longitude
Unknown
Altitude
Unknown
Speed
Unknown
Apparent Right ascension
Unknown
Apparent Declination
Unknown
Sunlit
N/A
Visualization observer readout
Local Sidereal Time
21:53:59
Azimuth
Unknown
Elevation
Unknown
Doppler factor
Unknown
Orbital elements
Apogee altitude
162.083 km
Perigee altitude
151.154 km
Semi-major axis
6,534.755 km
Eccentricity
0.00084
Inclination
97.2749°
RAAN
46.6504°
Arg. of periapsis
213.6171°
True anomaly
146.513°
Mean anomaly
146.4601°
Eccentric anomaly
146.48655°
Mean motion
4.10865 °/min
Orbital period
87.62 mins
BSTAR
0.00036773
Loading maneuver chart data...
Computing Atmospheric mass density...
Loading historical data...
Loading historical data...
Loading historical data...
Loading historical data...
Loading historical data...
Loading historical data...
Loading historical data...

Documentation

Showing up to 5 results
|